Regional Weather Roundup
Issued by NWS Bismarck, ND

Home | Current Version | Previous Version | Text Only | Print | Product List | Glossary On
Versions: 1 2 3 4 5 6 7 8 9 10 11 12 13 14 15 16 17 18 19 20 21 22 23 24 25 26 27 28 29 30 31 32 33 34 35 36 37 38 39 40 41 42 43 44 45 46 47 48 49 50
000
ASUS43 KBIS 202210
RWRBIS

NWR BROADCAST TEXT
NATIONAL WEATHER SERVICE BISMARCK ND
500 PM CDT FRI OCT 20 2017

NOTE: "FAIR" INDICATES FEW OR NO CLOUDS BELOW 12,000 FEET WITH NO
SIGNIFICANT WEATHER AND/OR OBSTRUCTIONS TO VISIBILITY.


CITY           SKY/WX    TMP DP  RH WIND       PRES   REMARKS
WILLISTON        N/A    N/A N/A N/A MISG      29.20F
MINOT          PTSUNNY   80  38  22 S8        29.23S
MINOT AFB      PTSUNNY   75  38  25 S8        29.21S
BISMARCK       MOSUNNY   75  47  36 S23G31    29.27F
DICKINSON      SUNNY     81  35  19 S14       29.23F
GARRISON         N/A     76  42  29 S14       29.24S
HETTINGER ARPT SUNNY     83  34  17 S16       29.26F
JAMESTOWN      PTSUNNY   69  51  52 S16G25    29.37F
CARRINGTON     FAIR      72  50  46 S25G33    29.34S
HAZEN          FAIR      81  37  21 S14G22    29.25F
LINTON         FAIR      73  48  40 S20G29    29.33F
RUGBY          FAIR      73  48  40 S16       29.26S
STANLEY        FAIR      72  34  25 S9        29.26S
TIOGA          FAIR      73  37  27 S9        29.24F
WATFORD CITY   FAIR      81  28  15 SW6       29.21S
$$

CITY           SKY/WX    TMP DP  RH WIND       PRES   REMARKS
GRAND FORKS    PTSUNNY   76  53  44 S29G40    29.38S
GRAND FORKS AF MOSUNNY   74  51  44 S20G26    29.37S
DEVILS LAKE    PTSUNNY   69  51  52 S22G29    29.32F
FARGO          MOSUNNY   77  54  44 S24G39    29.42F
CANDO          FAIR      70  50  49 SE20G25   29.31F
CAVALIER       FAIR      75  52  43 S17G26    29.31F
GRAFTON        FAIR      75  52  43 S22G30    29.36F
GWINNER        CLEAR     73  54  49 S25G36    29.43F
LANGDON        FAIR      72  50  46 S25G33    29.34S
ROLLA          FAIR      72  45  37 S13       29.29S
WALHALLA       FAIR     N/A N/A N/A S17G36    29.30F
$$

CITY           SKY/WX    TMP DP  RH WIND       PRES   REMARKS
ABERDEEN       PTSUNNY   76  54  46 S25G38    29.42F
MOBRIDGE       MOSUNNY   77  52  41 SE20G25   29.31F
BUFFALO          N/A     84  29  13 SW24G31   29.20F
RAPID CITY     MOSUNNY   83  36  18 SW23      29.34F
GLASGOW        CLOUDY    73  34  23 SE12      29.15F
SIDNEY         SUNNY     80  32  17 CALM      29.19F
WOLF POINT     MOSUNNY   79  26  14 SW7       29.16F
GLENDIVE       SUNNY     79  33  19 S6        29.20F
MILES CITY     SUNNY     77  34  21 SE8       29.20S
BAKER          SUNNY     80  37  21 W9G25     29.23F
$$

CITY           SKY/WX    TMP DP  RH WIND       PRES   REMARKS
BILLINGS       CLOUDY    67  33  28 W24G32    29.30R
GREAT FALLS    LGT RAIN  44  34  67 W22G30    29.44R
REGINA         CLOUDY    68  34  28 SE9       29.16S
ESTEVAN        MOSUNNY   77  32  19 S6        29.19S
$$




USA.gov is the U.S. government's official web portal to all federal, state and local government web resources and services.